Location: Gleizolles
(44.4833°N, 6.7667°E)
Time: 16:38:06
(UTC+00:00)

Altair - Pass Details

Date: 26 June 2024
Orbit: 1502 x 1681 km, 47.2° (Epoch: 13 July)

Event Time Altitude Azimuth Distance (km) Brightness Sun altitude
Rises 05:52:23 0° 293° (WNW) 4,704 9.6 18.9°
Reaches altitude 10° 05:55:25 10° 290° (WNW) 3,740 9.1 19.5°
Maximum altitude 06:04:46 65° 212° (SSW) 1,732 7.9 21.1°
Drops below altitude 10° 06:14:27 10° 134° (SE) 3,870 10.2 22.8°
Sets 06:17:39 0° 131° (SE) 4,875 10.7 23.3°
